This demonstration page uses our WeatherBlox Daily Observations layout. Learn more.

Left ArrowRight Arrow

Hourly Observations for February 18, 2017

Temp ( °F °C ) Dew Point ( °F °C ) Humidity (%) Winds ( mph kmh ) Pressure ( in mb ) Visibility ( mi km ) Precip ( " mm )
12:53 am 00:53 Clear 35 1.7 30 -1.1 82 82 N N/A 29.85 1011 10 16 N/A
1:53 am 01:53 Clear 36 2.2 31 -0.6 82 82 E 3 6 29.86 1011 10 16 N/A
2:53 am 02:53 Clear 33 0.6 31 -0.6 92 92 N N/A 29.86 1011 10 16 N/A
3:53 am 03:53 Clear 31 -0.6 29 -1.7 92 92 E 3 6 29.85 1011 10 16 N/A
4:53 am 04:53 Clear 32 undefined 30 -1.1 92 92 E 3 6 29.85 1011 10 16 N/A
5:53 am 05:53 Clear 36 2.2 32 undefined 86 86 ESE 5 7 29.83 1010 10 16 N/A
6:53 am 06:53 Clear 38 3.3 32 undefined 79 79 ESE 6 9 29.85 1011 10 16 N/A
7:53 am 07:53 Sunny 37 2.8 32 undefined 82 82 E 3 6 29.86 1011 10 16 N/A
8:53 am 08:53 Sunny 46 7.8 36 2.2 68 68 N N/A 29.88 1012 10 16 N/A
9:53 am 09:53 Sunny 52 11.1 36 2.2 55 55 SW 3 6 29.88 1012 10 16 N/A
10:53 am 10:53 Sunny 55 12.8 37 2.8 51 51 SW 8 13 29.86 1011 10 16 N/A
11:53 am 11:53 Sunny 58 14.4 38 3.3 48 48 SW 7 11 29.86 1011 10 16 N/A
12:53 pm 12:53 Sunny 61 16.1 39 3.9 44 44 VRB 6 9 29.84 1011 10 16 N/A
1:53 pm 13:53 Sunny 65 18.3 40 4.4 40 40 SW 8 13 29.82 1010 10 16 N/A
2:53 pm 14:53 Mostly Sunny 64 17.8 40 4.4 41 41 SW 12 19 29.82 1010 10 16 N/A
3:53 pm 15:53 Mostly Sunny 65 18.3 41 5 42 42 SW 7 11 29.82 1010 10 16 N/A
4:53 pm 16:53 Mostly Cloudy 64 17.8 40 4.4 41 41 SSW 9 15 29.83 1010 10 16 N/A
5:53 pm 17:53 Cloudy 60 15.6 42 5.6 52 52 SSW 9 15 29.83 1010 10 16 N/A
6:53 pm 18:53 Cloudy 56 13.3 45 7.2 67 67 SW 10 17 29.85 1011 10 16 N/A
7:53 pm 19:53 Mostly Clear 54 12.2 44 6.7 69 69 SSW 6 9 29.87 1011 10 16 N/A
8:53 pm 20:53 Cloudy 52 11.1 46 7.8 80 80 SW 10 17 29.88 1012 10 16 N/A
9:53 pm 21:53 Mostly Clear 51 10.6 46 7.8 83 83 SSW 7 11 29.90 1013 10 16 N/A
10:53 pm 22:53 Mostly Clear 50 10 47 8.3 89 89 SSW 5 7 29.91 1013 10 16 N/A
11:09 pm 23:09 Mostly Cloudy 51 10.6 47 8.3 86 86 WSW 6 9 29.94 1014 10 16 N/A
11:53 pm 23:53 Cloudy 51 10.6 47 8.3 86 86 W 7 11 29.92 1013 9 14 N/A

Powered by AerisWeather